FW9472 Weather Reports


Display with metric or nautical units.
time (UTC)temp
F
wind
direction
speed
MPH
gust
MPH
rain 1hr
in
rain 24hr
in
rain mn
in
humidity
%
barometer
mb
20260505170032 74 139 1.0 8.0 0.00 0.00 0.00 46 1016.3
20260505164529 74 202 3.0 9.0 0.00 0.00 0.00 46 1016.4
20260505163028 74 0 2.0 6.0 0.00 0.00 0.00 47 1016.7
20260505161532 73 206 1.0 8.0 0.00 0.00 0.00 52 1016.8
20260505153027 70 208 1.0 5.0 0.00 0.00 0.00 53 1017.1
20260505151534 70 0 0.0 5.0 0.00 0.00 0.00 59 1017.3
20260505124540 58 258 1.0 7.0 0.00 0.00 0.00 81 1016.6
20260505123030 56 253 1.0 6.0 0.00 0.00 0.00 82 1016.5
20260505121554 54 242 0.0 4.0 0.00 0.00 0.00 84 1016.3
20260505120031 52 0 0.0 3.0 0.00 0.00 0.00 86 1016.3
20260505114533 51 0 0.0 0.0 0.00 0.00 0.00 86 1016.2
20260505113031 51 0 0.0 0.0 0.00 0.00 0.00 85 1016.1
20260505111536 50 0 0.0 0.0 0.00 0.00 0.00 84 1016.2
20260505101539 50 0 0.0 0.0 0.00 0.00 0.00 83 1015.9
20260505100038 50 0 0.0 0.0 0.00 0.00 0.00 82 1015.8
20260505094530 50 0 0.0 0.0 0.00 0.00 0.00 82 1015.8
20260505093031 50 0 0.0 0.0 0.00 0.00 0.00 82 1015.8
20260505091535 50 0 0.0 0.0 0.00 0.00 0.00 82 1015.7
20260505090028 50 0 0.0 0.0 0.00 0.00 0.00 81 1015.6
20260505084532 51 0 0.0 0.0 0.00 0.00 0.00 81 1015.5
20260505083041 51 0 0.0 0.0 0.00 0.00 0.00 81 1015.4
20260505081532 51 0 0.0 0.0 0.00 0.00 0.00 81 1015.3
20260505080043 52 0 0.0 0.0 0.00 0.00 0.00 80 1015.2
20260505074532 52 0 0.0 0.0 0.00 0.00 0.00 78 1015.1
20260505073031 53 0 0.0 0.0 0.00 0.00 0.00 77 1015.1
20260505071537 53 0 0.0 0.0 0.00 0.00 0.00 75 1015.2
20260505070031 54 0 0.0 0.0 0.00 0.00 0.00 73 1015.2
20260505064530 56 0 0.0 0.0 0.00 0.00 0.00 68 1015.3
20260505063042 57 0 0.0 1.0 0.00 0.00 0.00 66 1015.1
20260505061535 58 0 0.0 0.0 0.00 0.00 0.00 63 1015.2
20260505060032 59 0 0.0 0.0 0.00 0.00 0.00 62 1015.1
20260505054541 59 222 0.0 3.0 0.00 0.00 0.00 61 1015.1
20260505053030 59 0 0.0 3.0 0.00 0.00 0.00 60 1015.3
20260505051538 60 0 0.0 3.0 0.00 0.00 0.00 60 1015.4
20260505041543 61 0 0.0 2.0 0.00 0.00 0.00 58 1015.3
20260505040030 61 0 0.0 1.0 0.00 0.00 0.00 58 1015.3
20260505034530 62 0 0.0 3.0 0.00 0.00 0.00 57 1015.4
20260505033032 62 207 0.0 2.0 0.00 0.00 0.00 56 1015.6
20260505031532 63 0 0.0 1.0 0.00 0.00 0.00 55 1015.6
20260505030028 63 0 0.0 3.0 0.00 0.00 0.00 55 1015.5
20260505024529 64 0 0.0 2.0 0.00 0.00 0.00 55 1015.6
20260505023031 64 0 0.0 1.0 0.00 0.00 0.00 54 1015.2
20260505021531 65 0 0.0 3.0 0.00 0.00 0.00 53 1015.2
20260505020045 66 0 0.0 1.0 0.00 0.00 0.00 53 1015.2
20260505014531 66 0 0.0 2.0 0.00 0.00 0.00 52 1015.1
20260505013028 67 0 0.0 1.0 0.00 0.00 0.00 50 1014.8
20260505011533 68 0 0.0 0.0 0.00 0.00 0.00 48 1014.7
20260505010032 69 0 0.0 2.0 0.00 0.00 0.00 47 1014.6
20260505004531 70 223 0.0 2.0 0.00 0.00 0.00 46 1014.6
20260505003031 71 0 0.0 1.0 0.00 0.00 0.00 45 1014.4
20260505001533 72 0 0.0 1.0 0.00 0.00 0.00 43 1014.4
20260505000037 72 0 0.0 1.0 0.00 0.00 0.00 43 1014.4
20260504234528 73 0 0.0 1.0 0.00 0.00 0.00 41 1014.2
20260504233028 74 0 0.0 2.0 0.00 0.00 0.00 40 1014.0
20260504231533 75 0 0.0 3.0 0.00 0.00 0.00 38 1013.9
20260504230031 75 204 0.0 7.0 0.00 0.00 0.00 36 1013.9
20260504224532 76 0 1.0 8.0 0.00 0.00 0.00 35 1013.9
20260504223031 77 0 1.0 8.0 0.00 0.00 0.00 35 1014.0
20260504221528 77 257 0.0 7.0 0.00 0.00 0.00 33 1014.1
20260504220028 77 238 6.0 12.0 0.00 0.00 0.00 31 1014.1
20260504214539 77 238 1.0 10.0 0.00 0.00 0.00 35 1014.1
20260504213031 77 259 3.0 11.0 0.00 0.00 0.00 34 1014.0
20260504211530 77 0 0.0 2.0 0.00 0.00 0.00 34 1013.9
20260504210030 77 0 0.0 2.0 0.00 0.00 0.00 34 1013.9
20260504204529 78 237 2.0 4.0 0.00 0.00 0.00 33 1014.2
20260504203030 78 0 0.0 4.0 0.00 0.00 0.00 35 1014.2
20260504201529 77 229 1.0 5.0 0.00 0.00 0.00 32 1014.3
20260504200033 77 233 3.0 8.0 0.00 0.00 0.00 33 1014.4
20260504194528 77 292 4.0 10.0 0.00 0.00 0.00 32 1014.7
20260504193030 77 251 1.0 4.0 0.00 0.00 0.00 34 1014.8
20260504191528 76 0 0.0 4.0 0.00 0.00 0.00 35 1015.0
20260504190031 76 240 1.0 6.0 0.00 0.00 0.00 35 1015.2
20260504184535 75 224 1.0 5.0 0.00 0.00 0.00 35 1015.6
20260504183035 76 278 0.0 5.0 0.00 0.00 0.00 33 1015.7
20260504181528 75 223 1.0 9.0 0.00 0.00 0.00 33 1015.8
20260504180028 74 214 2.0 9.0 0.00 0.00 0.00 35 1016.0
20260504174527 74 0 1.0 4.0 0.00 0.00 0.00 36 1016.0
20260504173034 73 283 3.0 8.0 0.00 0.00 0.00 36 1016.1
20260504171528 72 229 1.0 4.0 0.00 0.00 0.00 36 1016.3